Regional Weather Roundup
Issued by NWS

Home | Current Version | Previous Version | Text Only | Print | Product List | Glossary Off
Versions: 1 2 3 4 5 6 7 8 9 10 11 12 13 14 15 16 17 18 19 20 21 22 23 24 25 26 27 28 29 30 31 32 33 34 35 36 37 38 39 40 41 42 43 44 45 46 47 48 49 50

391
ASUS44 KLIX 272010
RWRLA
LOUISIANA WEATHER ROUNDUP
NATIONAL WEATHER SERVICE NEW ORLEANS LA
200 PM CST TUE JAN 27 2015

NOTE: "FAIR" INDICATES FEW OR NO CLOUDS BELOW 12,000 FEET WITH NO
      SIGNIFICANT WEATHER AND/OR OBSTRUCTIONS TO VISIBILITY.
      SKY/WX - SKY CONDITION AND SIGNIFICANT WEATHER.
      TMP - AIR TEMPERATURE.    DP   - DEWPOINT TEMPERATURE.
      RH  - RELATIVE HUMIDITY.  PRES - PRESSURE.
      HX  - HEAT INDEX.         WCI  - WIND CHILL INDEX.

*  THESE STATIONS ARE NOT NWS OR FAA STATIONS AND ARE NOT UNDER
   NWS QUALITY CONTROL.

LAZ040-048-061>063-065-066-069-272100-
SOUTHEAST LOUISIANA

CITY           SKY/WX    TMP DP  RH WIND       PRES   REMARKS
N.O. AUDUBON     N/A     70  48  45 MISG        N/A
N.O. INTL ARPT MOSUNNY   70  41  34 NW9       30.08F
N.O. LAKEFRONT SUNNY     62  45  53 W6        30.08F
N.O. DOWNTOWN* FAIR     N/A N/A N/A W3        30.08F
SLIDELL        SUNNY     76  37  24 VRB6      30.05F
BATON ROUGE    SUNNY     75  32  20 N7        30.08F
BOOTHVILLE     SUNNY     66  44  45 VRB5      30.08F
BELLE CHASSE   MOSUNNY   71  35  26 VRB6      30.07F
BOGALUSA*        N/A     73  32  21 N8G16     30.07F
GALLIANO*      CLEAR     73  37  26 MISG      30.08F
NEW ROADS*     FAIR      73  39  30 W7        30.09F
GONZALES*      FAIR      74  38  27 NW7       30.08S
HAMMOND*       SUNNY     75  30  19 NW12      30.08F
HOUMA*         SUNNY     73  41  31 N5        30.08F
PORT FOURCHON* CLEAR     66  50  55 W6        30.12F

$$

LAZ041-044-053-054-272100-
SOUTHWEST LOUISIANA

CITY           SKY/WX    TMP DP  RH WIND       PRES   REMARKS
LAKE CHARLES   SUNNY     74  44  34 E6        30.10F
LAFAYETTE      SUNNY     75  41  29 VRB7      30.10F
PATTERSON      SUNNY     72  45  37 NE7       30.10S
SALT POINT       N/A     60  50  69 VRB3      30.09F
NEW IBERIA     SUNNY     75  43  31 VRB3      30.10F
CHENAULT AIRPK NOT AVBL

$$

LAZ027-028-272100-
CENTRAL LOUISIANA

CITY           SKY/WX    TMP DP  RH WIND       PRES   REMARKS
FORT POLK      SUNNY     75  39  26 VRB5      30.10F
ALEXANDRIA INT SUNNY     74  35  24 CALM      30.09F
ALEXANDRIA     SUNNY     76  36  23 N8        30.10F

$$

LAZ001-002-272100-
NORTHWEST LOUISIANA

CITY           SKY/WX    TMP DP  RH WIND       PRES   REMARKS
SHREVEPORT     SUNNY     73  35  25 SW6       30.11F
BARKSDALE AFB  SUNNY     72  40  31 S3        30.12F
DTN SHREVEPORT SUNNY     71  36  27 W3        30.12F

$$

LAZ014-016-272100-
NORTHEAST LOUISIANA

CITY           SKY/WX    TMP DP  RH WIND       PRES   REMARKS
MONROE         SUNNY     69  39  33 VRB5      30.12F
TALLULAH       SUNNY     67  37  33 N10       30.11F

$$




USA.gov is the U.S. government's official web portal to all federal, state and local government web resources and services.